TimeMST,TemperatureF,Dew PointF,Humidity,Sea Level PressureIn,VisibilityMPH,Wind Direction,Wind SpeedMPH,Gust SpeedMPH,PrecipitationIn,Events,Conditions,WindDirDegrees,DateUTC
12:15 AM,69.8,33.8,27,29.96,10.0,NNW,4.6,-,N/A,,Clear,330,2012-10-05 07:15:00
12:35 AM,68.0,32.0,26,29.97,10.0,North,3.5,-,N/A,,Clear,360,2012-10-05 07:35:00
12:55 AM,68.0,32.0,26,29.97,10.0,Calm,Calm,-,N/A,,Clear,0,2012-10-05 07:55:00
1:15 AM,68.0,32.0,26,29.96,10.0,NE,4.6,-,N/A,,Clear,50,2012-10-05 08:15:00
1:35 AM,68.0,32.0,26,29.97,10.0,Calm,Calm,-,N/A,,Clear,0,2012-10-05 08:35:00
1:55 AM,66.2,32.0,28,29.97,10.0,North,3.5,-,N/A,,Clear,10,2012-10-05 08:55:00
2:15 AM,66.2,32.0,28,29.97,10.0,NNE,5.8,-,N/A,,Clear,20,2012-10-05 09:15:00
2:35 AM,68.0,30.2,24,29.96,10.0,NE,6.9,-,N/A,,Clear,40,2012-10-05 09:35:00
2:55 AM,68.0,32.0,26,29.96,10.0,NE,6.9,-,N/A,,Partly Cloudy,40,2012-10-05 09:55:00
3:15 AM,68.0,32.0,26,29.96,10.0,NE,3.5,-,N/A,,Scattered Clouds,40,2012-10-05 10:15:00
3:35 AM,66.2,32.0,28,29.96,10.0,NE,3.5,-,N/A,,Partly Cloudy,50,2012-10-05 10:35:00
3:55 AM,66.2,32.0,28,29.97,10.0,Calm,Calm,-,N/A,,Partly Cloudy,0,2012-10-05 10:55:00
4:15 AM,66.2,32.0,28,29.97,10.0,NNE,4.6,-,N/A,,Partly Cloudy,20,2012-10-05 11:15:00
4:35 AM,66.2,32.0,28,29.97,10.0,Calm,Calm,-,N/A,,Clear,0,2012-10-05 11:35:00
4:55 AM,66.2,32.0,28,29.97,10.0,ENE,3.5,-,N/A,,Partly Cloudy,70,2012-10-05 11:55:00
5:15 AM,64.4,32.0,30,29.98,10.0,NNE,5.8,-,N/A,,Partly Cloudy,30,2012-10-05 12:15:00
5:35 AM,64.4,32.0,30,29.98,10.0,NE,4.6,-,N/A,,Clear,50,2012-10-05 12:35:00
5:55 AM,62.6,32.0,32,29.99,10.0,ENE,3.5,-,N/A,,Clear,70,2012-10-05 12:55:00
6:35 AM,62.6,33.8,34,29.99,10.0,Calm,Calm,-,N/A,,Clear,0,2012-10-05 13:35:00
6:55 AM,62.6,35.6,37,29.99,10.0,Calm,Calm,-,N/A,,Clear,0,2012-10-05 13:55:00
7:15 AM,64.4,35.6,34,29.99,10.0,NNW,4.6,-,N/A,,Clear,340,2012-10-05 14:15:00
7:35 AM,68.0,35.6,30,30.00,10.0,Calm,Calm,-,N/A,,Clear,0,2012-10-05 14:35:00
7:55 AM,66.2,39.2,37,30.00,10.0,Calm,Calm,-,N/A,,Clear,0,2012-10-05 14:55:00
8:15 AM,69.8,41.0,35,30.01,10.0,Calm,Calm,-,N/A,,Clear,0,2012-10-05 15:15:00
8:35 AM,75.2,39.2,27,30.02,10.0,Calm,Calm,-,N/A,,Clear,0,2012-10-05 15:35:00
8:55 AM,75.2,41.0,29,30.02,10.0,SSW,3.5,-,N/A,,Clear,210,2012-10-05 15:55:00
9:35 AM,80.6,42.8,26,30.02,10.0,East,8.1,-,N/A,,Clear,100,2012-10-05 16:35:00
9:55 AM,82.4,42.8,25,30.02,10.0,East,8.1,-,N/A,,Clear,100,2012-10-05 16:55:00
10:15 AM,84.2,41.0,22,30.02,10.0,ESE,9.2,-,N/A,,Clear,110,2012-10-05 17:15:00
10:35 AM,84.2,41.0,22,30.01,10.0,ESE,8.1,-,N/A,,Clear,110,2012-10-05 17:35:00
10:55 AM,84.2,41.0,22,30.01,10.0,ESE,5.8,-,N/A,,Clear,120,2012-10-05 17:55:00
11:35 AM,86.0,41.0,20,30.00,10.0,SE,8.1,-,N/A,,Clear,130,2012-10-05 18:35:00
11:55 AM,87.8,41.0,19,29.99,10.0,SE,6.9,-,N/A,,Clear,130,2012-10-05 18:55:00
12:15 PM,87.8,39.2,18,29.98,10.0,ESE,6.9,-,N/A,,Clear,120,2012-10-05 19:15:00
12:35 PM,89.6,37.4,16,29.97,10.0,ESE,4.6,-,N/A,,Clear,120,2012-10-05 19:35:00
12:55 PM,89.6,37.4,16,29.96,10.0,East,5.8,-,N/A,,Clear,90,2012-10-05 19:55:00
1:15 PM,89.6,37.4,16,29.95,10.0,SE,5.8,-,N/A,,Clear,140,2012-10-05 20:15:00
1:35 PM,91.4,37.4,15,29.94,10.0,ESE,4.6,-,N/A,,Clear,120,2012-10-05 20:35:00
1:55 PM,91.4,37.4,15,29.93,10.0,South,4.6,-,N/A,,Clear,180,2012-10-05 20:55:00
2:15 PM,91.4,37.4,15,29.92,10.0,Calm,Calm,-,N/A,,Clear,0,2012-10-05 21:15:00
2:35 PM,91.4,37.4,15,29.91,10.0,Calm,Calm,-,N/A,,Clear,0,2012-10-05 21:35:00
2:55 PM,91.4,37.4,15,29.90,10.0,Calm,Calm,-,N/A,,Clear,0,2012-10-05 21:55:00
3:15 PM,93.2,35.6,13,29.90,10.0,Calm,Calm,-,N/A,,Clear,0,2012-10-05 22:15:00
3:35 PM,93.2,35.6,13,29.89,10.0,Calm,Calm,-,N/A,,Clear,0,2012-10-05 22:35:00
3:55 PM,93.2,35.6,13,29.88,10.0,WNW,3.5,-,N/A,,Clear,300,2012-10-05 22:55:00
4:15 PM,93.2,33.8,12,29.88,10.0,Calm,Calm,-,N/A,,Clear,0,2012-10-05 23:15:00
4:35 PM,93.2,33.8,12,29.88,10.0,Calm,Calm,-,N/A,,Clear,0,2012-10-05 23:35:00
4:55 PM,91.4,35.6,14,29.87,10.0,Calm,Calm,-,N/A,,Clear,0,2012-10-05 23:55:00
5:15 PM,91.4,37.4,15,29.87,10.0,ESE,4.6,-,N/A,,Clear,110,2012-10-06 00:15:00
5:35 PM,91.4,35.6,14,29.87,10.0,Calm,Calm,-,N/A,,Clear,0,2012-10-06 00:35:00
5:55 PM,91.4,35.6,14,29.87,10.0,Calm,Calm,-,N/A,,Clear,0,2012-10-06 00:55:00
6:15 PM,86.0,44.6,23,29.87,10.0,Calm,Calm,-,N/A,,Clear,0,2012-10-06 01:15:00
6:35 PM,86.0,39.2,19,29.87,10.0,Calm,Calm,-,N/A,,Scattered Clouds,0,2012-10-06 01:35:00
6:55 PM,82.4,39.2,21,29.87,10.0,Calm,Calm,-,N/A,,Partly Cloudy,0,2012-10-06 01:55:00
7:15 PM,82.4,37.4,20,29.88,10.0,WNW,4.6,-,N/A,,Scattered Clouds,290,2012-10-06 02:15:00
7:35 PM,80.6,37.4,21,29.88,10.0,NNW,5.8,-,N/A,,Partly Cloudy,330,2012-10-06 02:35:00
7:55 PM,80.6,35.6,20,29.88,10.0,North,5.8,-,N/A,,Partly Cloudy,360,2012-10-06 02:55:00
8:35 PM,78.8,33.8,20,29.88,10.0,NNE,3.5,-,N/A,,Scattered Clouds,20,2012-10-06 03:35:00
8:55 PM,77.0,33.8,21,29.88,10.0,NNE,5.8,-,N/A,,Partly Cloudy,20,2012-10-06 03:55:00
9:15 PM,77.0,33.8,21,29.88,10.0,NNE,5.8,-,N/A,,Partly Cloudy,30,2012-10-06 04:15:00
9:35 PM,77.0,32.0,19,29.89,10.0,NNE,5.8,-,N/A,,Partly Cloudy,20,2012-10-06 04:35:00
9:55 PM,75.2,44.6,34,29.89,10.0,Calm,Calm,-,N/A,,Clear,0,2012-10-06 04:55:00
10:15 PM,71.6,46.4,41,29.89,10.0,Calm,Calm,-,N/A,,Scattered Clouds,0,2012-10-06 05:15:00
10:35 PM,71.6,39.2,31,29.89,10.0,Calm,Calm,-,N/A,,Partly Cloudy,0,2012-10-06 05:35:00
10:55 PM,73.4,35.6,25,29.89,10.0,NNW,3.5,-,N/A,,Mostly Cloudy,340,2012-10-06 05:55:00
11:15 PM,71.6,39.2,31,29.89,10.0,North,4.6,-,N/A,,Mostly Cloudy,360,2012-10-06 06:15:00
11:55 PM,71.6,35.6,27,29.89,10.0,NNW,4.6,-,N/A,,Clear,330,2012-10-06 06:55:00